Find Kineis-5C

NORAD ID: 62081 Int'l Des: 2024-219 Owner: KINEIS Country: F operational
LEOCIRCULARRETROGRADESSO

当前视图

正在加载3D地球...

关于 Kineis-5C

正在加载描述...

即将过境

Passes for default location (London). Set your location on the main map for personalized predictions.

高度历史

Loading altitude history...

两行轨道根数

1 62081U 24219A 26151.20486064 .00000925 00000-0 15421-3 0 9992
2 62081 97.9024 310.5315 0003672 358.7318 1.3880 14.72256744 81259
Epoch: May 31, 2026 • Age: 10 hours

当前状态

高度 663.9 km
速度 7.53 km/s
星下点 51.63°N, 22.63°E
发射日期 Nov 25, 2024
运行时间 1.5 years
类型 other

技术详情

分类 Payload
质量 28.00 kg
干质量 28.00 kg
总质量 28.00 kg
长度 0.40 m
直径 0.20 m
跨度 1.60 m
形状 Box+ 2 pan + ant
制造商 KINEIS
平台类型 Cubesat 16U
阶段状态 In Orbit
所有者/国家 KINEIS/F

Most Searched